QZS-1R (QZSS/PRN 196)

Last updated on Sun Jun 21 2026 00:03:34 GMT+0000 (Coordinated Universal Time)

1 49336U 21096A 26170.63258758 -.00000290 00000+0 00000+0 0 9993 2 49336 37.4674 79.5460 0754800 271.8525 278.0167 1.00254705 17039
UTC large
Height (km)
Speed (km/s)
/
Latitude / Longitude
Inclination (degrees)
Orbital Period (minutes)
Azimuth
Elevation
Range (km)
Doppler Factor

Next 0 passes for location: London (51.5072 / 0.1276)

No passes found over London.
QZS-1R (QZSS/PRN 196)